Tracking 29892 objects as of 21-Nov-2024
HD Live streaming from Space Station
objects crossing your sky now

STARLINK-31919

Track STARLINK-31919 now!
10-day predictions
STARLINK-31919 is classified as:


NORAD ID: 59880
Int'l Code: 2024-098Y
Perigee: 447.9 km
Apogee: 454.5 km
Inclination: 43.0 °
Period: 93.5 minutes
Semi major axis: 6822 km
RCS: Unknown
Launch date: May 24, 2024
Source: United States (US)
Launch site: AIR FORCE EASTERN TEST RANGE (AFETR)
Your satellite tracking list
Your tracking list is empty




NASA's NSSDC Master Catalog

Two Line Element Set (TLE):
1 59880U 24098Y   24325.79946511  .00001333  00000-0  39221-4 0  9992
2 59880  43.0129  92.2005 0004788 272.1555  87.8753 15.40688878 29164
Source of the keplerian elements: AFSPC